Overview Statistics Trail Chart Weather Telemetry Raw packets
 

This is the latest recevied weather packets stored in our database for station/object WA6OOO. If no packets are shown the sender has not sent any weather packets the latest 10 day(s).

<< 15 16 17 18 19 20 21 >>
Time Temp. Humidity Pressure Rain* Wind** Luminosity Snow
1788573858 20.56° C 85% 1016 hPa 0 mm - 11 W/m² -
1788573558 20.56° C 84% 1015.9 hPa 0 mm - 14 W/m² -
1788573256 20.56° C 84% 1015.9 hPa 0 mm - 16 W/m² -
1788572956 20.56° C 84% 1016 hPa 0 mm - 19 W/m² -
1788572652 21.11° C 82% 1016 hPa 0 mm - 21 W/m² -
1788572352 21.11° C 81% 1015.7 hPa 0 mm - 32 W/m² -
1788572049 21.67° C 81% 1015.8 hPa 0 mm - 36 W/m² -
1788571743 21.67° C 80% 1016.1 hPa 0 mm - 46 W/m² -
1788571439 22.22° C 78% 1016 hPa 0 mm - 53 W/m² -
1788571136 22.22° C 78% 1016 hPa 0 mm - 59 W/m² -
1788570831 22.22° C 79% 1015.9 hPa 0 mm - 67 W/m² -
1788570526 22.22° C 77% 1016 hPa 0 mm - 75 W/m² -
1788570221 22.22° C 77% 1016 hPa 0 mm - 84 W/m² -
1788569918 22.78° C 75% 1016.1 hPa 0 mm - 93 W/m² -
1788569613 22.78° C 73% 1016.1 hPa 0 mm - 103 W/m² -
1788569308 23.33° C 74% 1016.1 hPa 0 mm - 114 W/m² -
1788569002 22.78° C 72% 1016.1 hPa 0 mm - 127 W/m² -
1788568698 22.78° C 70% 1016.2 hPa 0 mm - 138 W/m² -
1788568394 22.78° C 70% 1016.1 hPa 0 mm - 152 W/m² -
1788568089 22.78° C 71% 1016.1 hPa 0 mm - 166 W/m² -
1788567789 22.78° C 73% 1016 hPa 0 mm - 178 W/m² -
1788567484 23.33° C 71% 1016.2 hPa 0 mm - 193 W/m² -
1788567183 23.33° C 72% 1016.1 hPa 0 mm - 207 W/m² -
1788566879 23.89° C 71% 1016.2 hPa 0 mm - 221 W/m² -
1788566574 23.89° C 70% 1016.1 hPa 0 mm - 234 W/m² -

* Rain latest hour (hover to see other rain measurements)
** Current wind speed in m/s (hover to see current wind gust speed)